TimeCST,TemperatureF,Dew PointF,Humidity,Sea Level PressureIn,VisibilityMPH,Wind Direction,Wind SpeedMPH,Gust SpeedMPH,PrecipitationIn,Events,Conditions,WindDirDegrees,DateUTC
12:09 AM,42.8,26.6,53,30.21,10.0,ESE,4.6,-,N/A,,Overcast,120,2012-12-31 06:09:00
12:51 AM,43.0,28.0,56,30.19,10.0,SE,4.6,-,N/A,,Overcast,140,2012-12-31 06:51:00
1:51 AM,43.0,30.9,62,30.18,10.0,SE,6.9,-,N/A,,Overcast,140,2012-12-31 07:51:00
2:47 AM,42.8,35.6,76,30.18,5.0,South,8.1,-,0.00,Rain,Light Rain,170,2012-12-31 08:47:00
2:51 AM,42.1,37.0,82,30.18,4.0,South,9.2,-,0.00,Rain,Light Rain,170,2012-12-31 08:51:00
3:44 AM,42.8,39.2,87,30.16,2.0,SE,4.6,-,0.00,,Overcast,130,2012-12-31 09:44:00
3:51 AM,41.0,39.0,93,30.16,2.0,ESE,3.5,-,0.00,Rain,Light Rain,120,2012-12-31 09:51:00
3:58 AM,41.0,39.2,93,30.15,1.5,Calm,Calm,-,0.00,Rain,Light Rain,0,2012-12-31 09:58:00
4:05 AM,41.0,39.2,93,30.15,2.0,Calm,Calm,-,0.00,Rain,Light Rain,0,2012-12-31 10:05:00
4:12 AM,41.0,39.2,93,30.16,1.5,Calm,Calm,-,0.00,Rain,Light Rain,0,2012-12-31 10:12:00
4:26 AM,41.0,39.2,93,30.15,1.2,SE,3.5,-,0.01,Rain,Light Rain,140,2012-12-31 10:26:00
4:51 AM,41.0,39.2,93,30.12,1.0,East,3.5,-,N/A,Rain,Light Rain,100,2012-12-31 10:51:00
5:12 AM,41.0,39.2,93,30.12,1.5,ESE,4.6,-,0.01,Rain,Light Rain,110,2012-12-31 11:12:00
5:51 AM,41.0,39.9,96,30.11,1.2,SE,8.1,-,0.01,,Overcast,140,2012-12-31 11:51:00
6:02 AM,41.0,39.2,93,30.10,1.2,SE,8.1,-,N/A,,Overcast,140,2012-12-31 12:02:00
6:51 AM,42.1,39.9,92,30.10,1.2,SE,6.9,-,0.01,Rain,Light Rain,140,2012-12-31 12:51:00
7:10 AM,42.8,39.2,87,30.08,1.5,SE,9.2,-,0.00,Rain,Light Rain,130,2012-12-31 13:10:00
7:21 AM,42.8,39.2,87,30.08,1.2,SE,8.1,-,0.00,Rain,Light Rain,130,2012-12-31 13:21:00
7:44 AM,42.8,41.0,93,30.08,2.0,SE,5.8,-,0.00,,Overcast,140,2012-12-31 13:44:00
7:51 AM,42.1,41.0,96,30.08,2.0,SE,5.8,-,0.00,,Overcast,130,2012-12-31 13:51:00
8:04 AM,42.8,41.0,93,30.07,1.5,SE,5.8,-,0.00,Rain,Light Rain,130,2012-12-31 14:04:00
8:31 AM,42.8,41.0,93,30.06,0.8,SE,9.2,-,0.01,Rain,Light Rain,140,2012-12-31 14:31:00
8:51 AM,43.0,42.1,97,30.04,0.8,SE,11.5,-,0.01,Rain,Light Rain,140,2012-12-31 14:51:00
9:02 AM,42.8,42.8,100,30.03,1.0,SE,11.5,-,N/A,,Overcast,130,2012-12-31 15:02:00
9:51 AM,45.0,43.0,93,30.01,1.5,SE,10.4,18.4,N/A,,Overcast,130,2012-12-31 15:51:00
10:51 AM,46.9,45.0,93,30.06,1.5,WSW,8.1,-,N/A,,Overcast,250,2012-12-31 16:51:00
11:51 AM,46.9,46.0,97,30.04,1.2,WNW,5.8,-,N/A,,Overcast,300,2012-12-31 17:51:00
12:51 PM,46.9,46.0,97,30.01,1.0,Calm,Calm,-,0.00,Rain,Light Rain,0,2012-12-31 18:51:00
1:21 PM,46.4,44.6,93,30.00,0.8,Calm,Calm,-,0.01,Rain,Light Rain,0,2012-12-31 19:21:00
1:51 PM,48.0,46.0,93,29.99,0.8,North,4.6,-,0.02,,Overcast,350,2012-12-31 19:51:00
2:51 PM,48.0,46.0,93,29.99,1.0,North,3.5,-,0.03,Rain,Light Rain,10,2012-12-31 20:51:00
3:51 PM,48.9,46.9,93,29.98,3.0,East,3.5,-,0.01,,Overcast,100,2012-12-31 21:51:00
4:26 PM,48.2,46.4,93,29.98,6.0,NE,3.5,-,N/A,,Overcast,40,2012-12-31 22:26:00
4:48 PM,48.2,46.4,93,29.97,4.0,ESE,4.6,-,N/A,,Overcast,110,2012-12-31 22:48:00
4:51 PM,48.9,46.9,93,29.97,4.0,Calm,Calm,-,N/A,,Overcast,0,2012-12-31 22:51:00
5:11 PM,48.2,46.4,93,29.98,2.5,Calm,Calm,-,N/A,,Overcast,0,2012-12-31 23:11:00
5:51 PM,48.9,46.9,93,29.97,3.0,NE,3.5,-,N/A,,Overcast,40,2012-12-31 23:51:00
6:51 PM,48.9,48.0,97,29.97,3.0,Calm,Calm,-,N/A,,Overcast,0,2013-01-01 00:51:00
7:47 PM,48.2,48.2,100,29.99,2.5,Calm,Calm,-,N/A,,Overcast,0,2013-01-01 01:47:00
7:51 PM,50.0,48.0,93,29.99,2.5,Calm,Calm,-,N/A,,Overcast,0,2013-01-01 01:51:00
8:51 PM,48.9,48.0,97,30.00,2.5,Calm,Calm,-,N/A,,Overcast,0,2013-01-01 02:51:00
9:38 PM,48.2,48.2,100,30.00,1.8,NNW,6.9,-,N/A,,Overcast,340,2013-01-01 03:38:00
9:51 PM,48.9,48.0,97,30.00,1.5,North,4.6,-,N/A,,Overcast,350,2013-01-01 03:51:00
10:51 PM,48.9,48.0,97,30.02,1.5,North,5.8,-,N/A,,Overcast,10,2013-01-01 04:51:00
11:31 PM,48.2,46.4,93,30.02,2.0,North,11.5,-,N/A,,Overcast,10,2013-01-01 05:31:00
11:51 PM,48.0,46.9,96,30.03,3.0,NNE,9.2,-,N/A,,Overcast,20,2013-01-01 05:51:00